This is the latest recevied weather packets stored in our database for station/object KM4KBD. If no packets are shown the sender has not sent any weather packets the latest 10 day(s).
| Time | Temp. | Humidity | Pressure | Rain* | Wind** | Luminosity | Snow |
|---|---|---|---|---|---|---|---|
| 1777659861 | 12.78° C | 69% | 1020.7 hPa | 0 mm | - | 128 W/m² | - |
| 1777659558 | 12.78° C | 69% | 1020.5 hPa | 0 mm | - | 98 W/m² | - |
| 1777658952 | 12.78° C | 69% | 1020.9 hPa | 0 mm | - | 84 W/m² | - |
| 1777656832 | 15° C | 59% | 1020.1 hPa | 0 mm | - | 225 W/m² | - |
| 1777655918 | 15° C | 57% | 1020.1 hPa | 0 mm | - | 211 W/m² | - |
| 1777655312 | 15.56° C | 53% | 1020 hPa | 0 mm | - | 183 W/m² | - |
| 1777655009 | 16.67° C | 53% | 1020.1 hPa | 0 mm | - | 297 W/m² | - |
| 1777654404 | 16.11° C | 53% | 1019.9 hPa | 0 mm | - | 333 W/m² | - |
| 1777653799 | 15.56° C | 52% | 1020 hPa | 0 mm | - | 275 W/m² | - |
| 1777653494 | 16.11° C | 53% | 1019.8 hPa | 0 mm | - | 215 W/m² | - |
| 1777653192 | 15.56° C | 51% | 1019.8 hPa | 0 mm | - | 345 W/m² | - |
| 1777652888 | 15.56° C | 50% | 1019.9 hPa | 0 mm | - | 287 W/m² | - |
| 1777652585 | 16.11° C | 53% | 1020 hPa | 0 mm | - | 308 W/m² | - |
| 1777652281 | 16.11° C | 51% | 1019.9 hPa | 0 mm | - | 306 W/m² | - |
| 1777651979 | 16.67° C | 50% | 1019.6 hPa | 0 mm | - | 334 W/m² | - |
| 1777651675 | 16.11° C | 50% | 1019.7 hPa | 0 mm | - | 404 W/m² | - |
| 1777651070 | 16.11° C | 52% | 1019.6 hPa | 0 mm | - | 328 W/m² | - |
| 1777650160 | 16.67° C | 51% | 1019.9 hPa | 0 mm | - | 714 W/m² | - |
| 1777649858 | 17.22° C | 54% | 1019.8 hPa | 0 mm | - | 649 W/m² | - |
| 1777649555 | 16.67° C | 52% | 1019.7 hPa | 0 mm | - | 778 W/m² | - |
| 1777649251 | 16.67° C | 54% | 1019.7 hPa | 0 mm | - | 709 W/m² | - |
| 1777648948 | 16.11° C | 52% | 1019.8 hPa | 0 mm | - | 731 W/m² | - |
| 1777648645 | 16.11° C | 52% | 1019.6 hPa | 0 mm | - | 634 W/m² | - |
| 1777648341 | 15.56° C | 53% | 1019.5 hPa | 0 mm | - | 619 W/m² | - |
| 1777648038 | 15.56° C | 51% | 1019.6 hPa | 0 mm | - | 609 W/m² | - |
* Rain latest hour (hover to see other rain measurements)
** Current wind speed in m/s (hover to see current wind gust speed)